Regional Weather Roundup
Issued by NWS

Home | Current Version | Previous Version | Graphics & Text | Print | Product List | Glossary On
Versions: 1 2 3 4 5 6 7 8 9 10 11 12 13 14 15 16 17 18 19 20 21 22 23 24 25 26 27 28 29 30 31 32 33 34 35 36 37 38 39 40 41 42 43 44 45 46 47 48 49 50
000
ASUS45 KTFX 050610
RWRMT
MONTANA REGIONAL WEATHER ROUNDUP
NATIONAL WEATHER SERVICE GREAT FALLS MT
1200 AM MDT WED AUG 05 2015

NOTE: "FAIR" INDICATES FEW OR NO CLOUDS BELOW 12000 FEET WITH NO
SIGNIFICANT WEATHER AND/OR OBSTRUCTIONS TO VISIBILITY.

MTZ001>007-043-050700-
WEST OF THE DIVIDE

CITY           SKY/WX    TMP DP  RH WIND       PRES   REMARKS
KALISPELL      CLEAR     61  44  53 S7        29.88S
MISSOULA       MOCLDY    68  48  48 W13       29.92F
BUTTE          CLEAR     55  48  77 SE3       30.10S
MULLAN PASS    CLEAR     60  35  39 S6        30.07S
DEER LODGE       N/A     59  45  58 CALM      30.07R
EUREKA           N/A     66  37  34 CALM      29.86S
HAMILTON         N/A     61  45  55 S6        29.96S
LIBBY            N/A     66  37  34 S6        29.86S
$$

MTZ008-052>055-050700-
SOUTHWEST MONTANA

CITY           SKY/WX    TMP DP  RH WIND       PRES   REMARKS
BOZEMAN        MOCLDY    62  54  74 S7        30.04S
DILLON         PTCLDY    61  48  62 N7        30.05S
W YELLOWSTONE  PTCLDY    50  46  87 E8        30.21F
$$

MTZ009-010-012-014-046-048-049-054-050700-
EAST SLOPES AND CENTRAL MONTANA

CITY           SKY/WX    TMP DP  RH WIND       PRES   REMARKS
CUT BANK       CLEAR     61  47  59 N12       29.97R
GREAT FALLS    PTCLDY    62  52  69 SE3       29.95F
MALMSTROM AFB  PTCLDY    61  52  72 SE6       29.95F
HELENA         PTCLDY    66  48  52 CALM      29.98F
CONRAD           N/A     57  55  93 SE6       29.97F
$$

MTZ011-013-016-021-045-047-050-051-050700-
NORTH CENTRAL MONTANA

CITY           SKY/WX    TMP DP  RH WIND       PRES   REMARKS
HAVRE          CLOUDY    70  51  51 SW9       29.87S
LEWISTOWN      PTCLDY    56  49  77 S5        30.01F
CHINOOK          N/A     64  55  72 E5        29.88S
FORT BENTON      N/A     64  52  63 S5        29.91F
$$

MTZ017>020-022>027-061-062-050700-
NORTHEAST MONTANA

CITY           SKY/WX    TMP DP  RH WIND       PRES   REMARKS
GLASGOW        LGT RAIN  67  63  87 E5        29.90F
JORDAN           N/A     65  62  90 CALM      29.94S
SIDNEY         CLOUDY   N/A N/A N/A SW3       29.93F
WOLF POINT     CLOUDY    68  65  90 NW5       29.93F
PLENTYWOOD       N/A     64  63  94 CALM      29.96R
POPLAR           N/A     66  64  94 E3        29.93F
$$

MTZ028>42-056>058-050700-
SOUTHCENTRAL AND SOUTHEAST MONTANA

CITY           SKY/WX    TMP DP  RH WIND       PRES   REMARKS
BAKER          LGT RAIN  63  60  90 NE9       30.00F
BILLINGS       PTCLDY    67  52  58 W3        30.00F
LIVINGSTON     RAIN      62  54  74 SW12      30.09R
MILES CITY     MOCLDY    62  61  96 SW7       29.95R
EKALAKA          N/A     61  57  86 E5        29.99F
FORSYTH          N/A     63  57  82 CALM      29.95F
LAUREL           N/A     59  51  74 CALM      29.99F
$$

REGIONAL REPORTS...DAKOTAS

CITY           SKY/WX    TMP DP  RH WIND       PRES   REMARKS
WILLISTON      CLOUDY    75  58  55 W16G25    29.94R
MINOT          CLOUDY    63  54  72 E9        29.96S
DICKINSON      CLOUDY    68  58  70 SW12      30.00R
CROSBY         FAIR      66  55  68 SE6       29.91F
BISMARCK       MOCLDY    67  60  78 E6        29.99R
GRAND FORKS    CLEAR     62  54  74 NE7       30.04R
FARGO          PTCLDY    61  54  77 CALM      30.03R
BUFFALO SD       N/A     62  60  93 NE7       29.95R
RAPID CITY     CLOUDY    68  60  75 CALM      30.01R
$$

REGIONAL REPORTS...WYOMING/IDAHO/WASHINGTON

CITY           SKY/WX    TMP DP  RH WIND       PRES   REMARKS
GILLETTE       PTCLDY    63  56  78 W10       30.06S
SHERIDAN       MOCLDY    63  54  72 NE3       30.01F
BUFFALO WY     MOCLDY    61  55  81 S13       30.09F
CODY           MOCLDY    61  48  63 SW9       30.11S
YELLOWSTONE LA   N/A     45  43  93 CALM      30.32S
IDAHO FALLS    MOCLDY    61  48  62 NW10      30.10R
SALMON         PTCLDY    61  45  55 CALM      29.96R
BOISE          CLOUDY    80  48  32 SE12      29.87R
SPOKANE        PTCLDY    71  40  32 W8        29.84S
$$

REGIONAL REPORTS...ALBERTA

CITY           SKY/WX    TMP DP  RH WIND       PRES   REMARKS
EDMONTON       CLOUDY    55  54  94 N5        29.92R
CALGARY        MOCLDY    55  50  82 CALM      29.96F
LETHBRIDGE     MOCLDY    59  52  77 N3        29.97R
MEDICINE HAT   LGT RAIN  66  57  72 N13G25    29.90R
WATERTON GATE    N/A     48  45  87 S1          N/A
MILK RIVER       N/A     57  52  82 N13G18      N/A
$$

REGIONAL REPORTS...SASKATCHEWAN

CITY           SKY/WX    TMP DP  RH WIND       PRES   REMARKS
SWIFT CURRENT  MOCLDY    64  57  77 S8        29.88S
REGINA         LGT RAIN  64  63  94 SE12      29.92F
SASKATOON      MOCLDY    66  59  77 SE13      29.82R
CYPRESS HILLS    N/A     64  50  59 S5          N/A
VAL MARIE        N/A     66  57  72 SE5         N/A
ROCKGLEN         N/A    N/A N/A N/A SE3         N/A
ASSINIBOIA       N/A     59  57  94 N7          N/A
$$



USA.gov is the U.S. government's official web portal to all federal, state and local government web resources and services.